Location: Aldenham
(51.6667°N, 0.3500°W)
Time: 18:23:22
(UTC+00:00)

Explorer 7 - Pass Details

Date: 17 February 2026
Orbit: 430 x 542 km, 50.2° (Epoch: 8 March)

Event Time Altitude Azimuth Distance (km) Brightness Sun altitude
Rises 18:30:06 0° 271° (W) 2,498 12.3 -11.5°
Reaches altitude 10° 18:32:13 10° 269° (W) 1,641 10.8 -11.8°
Maximum altitude 18:35:55 70° 185° (S) 522 6.7 -12.4°
Enters shadow 18:38:28 20° 105° (ESE) 1,205 8.0 -12.8°
Drops below altitude 10° 18:39:46 10° 102° (ESE) 1,711 - -13.0°
Sets 18:42:01 0° 100° (E) 2,616 - -13.3°
